Flag for Germany Weather past 2 weeks in Hennef (Sieg), North Rhine-Westphalia, Germany

Now
74 °F

Passing clouds.


Feels Like: 73 °F
Forecast: 67 / 88 °F
Wind: 3 mph from Southeast

Location: Bonn-Hangelar

Current Time: Aug 31, 2015 at 1:00:22 AM

Latest Report: Aug 30, 2015 at 11:00 PM


Visibility: 15 mi

Pressure: 29.94 "Hg

Humidity: 86%

Dew point: 69 °F

Location of Hennef (Sieg)Location

Historic Weather in Hennef (Sieg) — Graph

°F

Hennef (Sieg) temperature yesterday

Maximum temperature yesterday: 87 °F (at 4:00 PM)
Minimum temperature yesterday: 63 °F (at 7:00 AM)
Average temperature yesterday: 75 °F

Past Weeks' High & Low Weather Summary

 TemperatureHumidityPressure
High87 °F (Aug 30, 4:00 PM)100% (Aug 15, 11:00 PM)30.24 "Hg (Aug 15, 11:00 PM)
Low49 °F (Aug 19, 6:00 AM)33% (Aug 23, 3:00 PM)29.50 "Hg (Aug 24, 3:00 PM)
Average63 °F78%29.98 "Hg
* Reported Aug 15 11:00 PM — Aug 30 11:00 PM, Hennef (Sieg), Weather by CustomWeather, © 2015

Note: Actual official high and low records may vary slightly from our data, if they occured in-between our weather recording intervals... More about our weather records

Advertising

Hennef (Sieg) weather history for previous 24 hours

 ConditionsComfort  
Time TempWeatherWind HumidityBarometerVisibility
11:00 PM
Sun, Aug 30
74 °FPassing clouds.3 mph86%29.94 "Hg15 mi
10:00 PM75 °FOvercast.3 mph82%29.97 "Hg16 mi
9:00 PM78 °FOvercast.1 mph74%29.97 "Hg19 mi
8:00 PM82 °FOvercast.1 mph65%29.96 "Hg25 mi
7:00 PM83 °FOvercast.3 mph62%29.97 "Hg25 mi
6:00 PM86 °FOvercast.5 mph54%29.96 "Hg19 mi
5:00 PM87 °FOvercast.6 mph53%29.96 "Hg19 mi
4:00 PM87 °FOvercast.6 mph51%29.96 "Hg9 mi
3:00 PM87 °FPartly sunny.7 mph52%29.97 "Hg7 mi
2:00 PM87 °FPartly sunny.7 mph53%29.97 "Hg6 mi
1:00 PM86 °FSunny.7 mph58%29.98 "Hg9 mi
12:00 PM84 °FSunny.5 mph62%29.98 "Hg19 mi
11:00 AM76 °FPassing clouds.3 mph78%30.00 "Hg12 mi
10:00 AM71 °FSunny.2 mph87%30.02 "Hg7 mi
9:00 AM67 °FFog.3 mph94%30.03 "Hg4 mi
8:00 AM64 °FFog.3 mph100%30.02 "Hg2 mi
7:00 AM63 °FFog.2 mph99%30.03 "Hg2 mi
6:00 AM64 °FFog.5 mph98%30.01 "Hg2 mi
5:00 AM74 °FClear.6 mph76%29.99 "Hg22 mi
4:00 AM65 °FPassing clouds.2 mph96%30.01 "Hg6 mi
3:00 AM65 °FPassing clouds.3 mph94%30.03 "Hg6 mi
2:00 AM68 °FPassing clouds.5 mph90%30.05 "Hg9 mi
1:00 AM68 °FClear.5 mph90%30.06 "Hg9 mi
Weather by CustomWeather, © 2015

See weather overviewHow to use our weather pages